Effingham, IL

2:27 AM CDT on October 23, 2017 (GMT -0500)
Effingham

Weather History for K1H2 - January, 2014

Change the Weather History Date:

Wednesday, January 8, 2014

  Actual Average (KMTO) Record (KMTO)
Temperature  
Mean Temperature 21 °F -  
Max Temperature 29 °F 29 °F 60 °F (2008)
Min Temperature 13 °F 14 °F -11 °F (1970)
Degree Days  
Heating Degree Days 44    
Moisture  
Dew Point 12 °F    
Average Humidity 69    
Maximum Humidity 76    
Minimum Humidity 57    
Precipitation  
Precipitation 0.00 in - - ()
Sea Level Pressure  
Sea Level Pressure 30.38 in    
Wind  
Wind Speed 4 mph (SSE)    
Max Wind Speed 7 mph    
Max Gust Speed -    
Visibility 10 miles    
Events      
Averages and records for this station are not official NWS values.
T = Trace of Precipitation, MM = Missing Value Source: NWS Daily Summary

Daily Weather History Graph

Daily Weather History Graph

Search for Another Location

Airport or City:

Trip Planner

Search our weather history database for the weather conditions in past years. The results will help you decide how hot, cold, wet, or windy it might be!

Date:

Astronomy

Jan. 08, 2014 Rise Set
Actual Time 7:13 AM CST 4:48 PM CST
Civil Twilight 6:43 AM CST 5:18 PM CST
Nautical Twilight 6:10 AM CST 5:51 PM CST
Astronomical Twilight 5:38 AM CST 6:23 PM CST
Moon 11:39 AM CST (1/8) 12:20 AM CST (1/8)
Length of Visible Light 10h 34m
Length of Day
9h 35m
First Quarter, 56% of the Moon is Illuminated
Jan 8
First Quarter
Jan 15
Full
Jan 23
Last Quarter
Jan 30
New
Feb 6
First Quarter

Hourly Weather History & Observations

Time (CST) Temp. Windchill Dew Point Humidity Pressure Visibility Wind Dir Wind Speed Gust Speed Precip Events Conditions
12:15 AM 13.6 °F 3.5 °F 5.5 °F 70% 30.28 in - South 6.9 mph - N/A   Clear
12:35 AM 13.5 °F 3.3 °F 5.7 °F 71% 30.27 in - SSE 6.9 mph - N/A   Clear
12:55 AM 14.0 °F 5.1 °F 6.1 °F 71% 30.28 in - South 5.8 mph - N/A   Clear
1:15 AM 14.0 °F 6.5 °F 6.4 °F 72% 30.28 in - South 4.6 mph - N/A   Clear
1:35 AM 14.4 °F 8.6 °F 6.8 °F 72% 30.28 in - South 3.5 mph - N/A   Clear
1:55 AM 14.5 °F 7.1 °F 7.0 °F 72% 30.29 in - South 4.6 mph - N/A   Mostly Cloudy
2:15 AM 15.3 °F 7.9 °F 7.7 °F 72% 30.29 in - South 4.6 mph - N/A   Overcast
2:35 AM 16.3 °F 6.7 °F 8.4 °F 71% 30.29 in - South 6.9 mph - N/A   Overcast
2:55 AM 16.5 °F 8.1 °F 8.6 °F 71% 30.30 in - South 5.8 mph - N/A   Overcast
3:15 AM 16.7 °F 8.3 °F 9.1 °F 72% 30.30 in - South 5.8 mph - N/A   Overcast
3:35 AM 17.1 °F 10.0 °F 9.5 °F 72% 30.30 in - South 4.6 mph - N/A   Overcast
3:55 AM 17.6 °F 9.3 °F 9.9 °F 72% 30.30 in - South 5.8 mph - N/A   Mostly Cloudy
4:15 AM 18.0 °F 9.8 °F 10.4 °F 72% 30.30 in - South 5.8 mph - N/A   Scattered Clouds
4:35 AM 18.3 °F 10.2 °F 10.4 °F 71% 30.30 in - South 5.8 mph - N/A   Mostly Cloudy
4:55 AM 18.1 °F 12.9 °F 10.4 °F 72% 30.31 in - South 3.5 mph - N/A   Mostly Cloudy
5:15 AM 18.5 °F 13.3 °F 11.1 °F 73% 30.30 in - South 3.5 mph - N/A   Mostly Cloudy
5:35 AM 19.2 °F 14.1 °F 11.7 °F 72% 30.31 in - South 3.5 mph - N/A   Mostly Cloudy
5:55 AM 19.6 °F 11.7 °F 12.2 °F 73% 30.31 in - SSW 5.8 mph - N/A   Overcast
6:15 AM 20.3 °F 13.8 °F 12.7 °F 73% 30.31 in - South 4.6 mph - N/A   Overcast
6:35 AM 20.8 °F 16.0 °F 13.1 °F 72% 30.33 in - SSW 3.5 mph - N/A   Overcast
6:55 AM 20.8 °F 16.0 °F 13.1 °F 72% 30.34 in - SSW 3.5 mph - N/A   Mostly Cloudy
7:15 AM 20.5 °F 15.6 °F 13.1 °F 73% 30.34 in - South 3.5 mph - N/A   Mostly Cloudy
7:35 AM 20.3 °F - 13.1 °F 74% 30.35 in - Calm Calm - N/A   Mostly Cloudy
7:55 AM 20.5 °F - 13.1 °F 73% 30.35 in 10.0 mi Calm Calm - N/A   Scattered Clouds
8:15 AM 19.4 °F 14.3 °F 12.9 °F 76% 30.35 in - SE 3.5 mph - N/A   Clear
8:35 AM 20.8 °F - 14.0 °F 75% 30.37 in - Calm Calm - N/A   Clear
8:55 AM 21.6 °F - 14.4 °F 74% 30.38 in - Calm Calm - N/A   Clear
9:15 AM 22.8 °F 16.7 °F 14.5 °F 71% 30.40 in - SSW 4.6 mph - N/A   Clear
9:35 AM 23.5 °F 17.6 °F 14.9 °F 70% 30.41 in - SSW 4.6 mph - N/A   Clear
9:55 AM 24.8 °F 19.1 °F 15.3 °F 67% 30.41 in - WSW 4.6 mph - N/A   Clear
10:15 AM 25.2 °F - 15.8 °F 68% 30.41 in - Calm Calm - N/A   Clear
10:35 AM 25.9 °F 21.7 °F 16.0 °F 66% 30.40 in - SW 3.5 mph - N/A   Clear
10:55 AM 26.6 °F 20.0 °F 16.2 °F 65% 30.39 in 10.0 mi SW 5.8 mph - N/A   Scattered Clouds
11:15 AM 27.3 °F 23.4 °F 16.3 °F 63% 30.38 in 10.0 mi SW 3.5 mph - N/A   Scattered Clouds
11:35 AM 27.5 °F 23.6 °F 15.8 °F 61% 30.37 in 10.0 mi SW 3.5 mph - N/A   Clear
11:55 AM 27.9 °F 24.0 °F 15.8 °F 61% 30.37 in 10.0 mi SW 3.5 mph - N/A   Clear
12:15 PM 28.4 °F - 16.5 °F 61% 30.36 in 10.0 mi Calm Calm - N/A   Clear
12:35 PM 28.4 °F - 16.0 °F 60% 30.36 in - Calm Calm - N/A   Clear
12:55 PM 28.8 °F - 16.2 °F 59% 30.37 in - Calm Calm - N/A   Clear
1:15 PM 28.4 °F - 17.1 °F 63% 30.37 in - Calm Calm - N/A   Clear
1:35 PM 29.3 °F - 15.8 °F 57% 30.37 in - Calm Calm - N/A   Clear
1:55 PM 28.9 °F - 16.3 °F 59% 30.37 in 10.0 mi Calm Calm - N/A   Scattered Clouds
2:15 PM 28.9 °F - 17.6 °F 63% 30.38 in 10.0 mi Calm Calm - N/A   Scattered Clouds
2:35 PM 28.2 °F 24.4 °F 17.4 °F 64% 30.39 in 10.0 mi NE 3.5 mph - N/A   Clear
2:55 PM 28.0 °F 24.2 °F 17.2 °F 64% 30.40 in 10.0 mi NNE 3.5 mph - N/A   Clear
3:15 PM 27.5 °F - 17.2 °F 65% 30.40 in 10.0 mi Calm Calm - N/A   Clear
3:35 PM 27.0 °F 21.6 °F 17.1 °F 66% 30.40 in 10.0 mi NNE 4.6 mph - N/A   Clear
3:55 PM 26.4 °F 22.4 °F 16.5 °F 66% 30.41 in 10.0 mi North 3.5 mph - N/A   Clear
4:15 PM 25.3 °F 19.7 °F 15.8 °F 67% 30.41 in 10.0 mi North 4.6 mph - N/A   Mostly Cloudy
4:35 PM 24.3 °F 19.9 °F 15.6 °F 70% 30.42 in 10.0 mi North 3.5 mph - N/A   Overcast
4:55 PM 23.9 °F 19.5 °F 15.6 °F 71% 30.42 in 10.0 mi NNE 3.5 mph - N/A   Overcast
5:15 PM 23.4 °F 17.4 °F 15.4 °F 72% 30.42 in 10.0 mi NNE 4.6 mph - N/A   Scattered Clouds
5:35 PM 22.6 °F 18.0 °F 14.9 °F 72% 30.42 in 10.0 mi NNE 3.5 mph - N/A   Scattered Clouds
5:55 PM 21.7 °F 15.5 °F 14.2 °F 73% 30.43 in 10.0 mi North 4.6 mph - N/A   Scattered Clouds
6:15 PM 20.8 °F 16.0 °F 13.1 °F 72% 30.43 in 10.0 mi NNE 3.5 mph - N/A   Clear
6:35 PM 20.1 °F 13.6 °F 11.7 °F 70% 30.43 in 10.0 mi NNE 4.6 mph - N/A   Clear
6:55 PM 19.4 °F 12.8 °F 11.1 °F 70% 30.44 in 10.0 mi North 4.6 mph - N/A   Clear
7:15 PM 19.2 °F 14.1 °F 11.1 °F 71% 30.45 in 10.0 mi North 3.5 mph - N/A   Scattered Clouds
7:35 PM 19.4 °F 12.8 °F 11.3 °F 71% 30.45 in 10.0 mi NNE 4.6 mph - N/A   Mostly Cloudy
7:55 PM 19.2 °F 14.1 °F 10.2 °F 68% 30.46 in 10.0 mi NE 3.5 mph - N/A   Mostly Cloudy
8:15 PM 18.9 °F 13.7 °F 9.5 °F 67% 30.46 in 10.0 mi NNE 3.5 mph - N/A   Scattered Clouds
8:35 PM 18.3 °F - 9.5 °F 68% 30.46 in 10.0 mi Calm Calm - N/A   Scattered Clouds
8:55 PM 18.3 °F 13.1 °F 9.9 °F 70% 30.46 in 10.0 mi North 3.5 mph - N/A   Scattered Clouds
9:15 PM 17.4 °F - 9.5 °F 71% 30.46 in 10.0 mi Calm Calm - N/A   Scattered Clouds
9:35 PM 17.4 °F - 9.5 °F 71% 30.46 in 10.0 mi Calm Calm - N/A   Clear
9:55 PM 17.6 °F - 9.5 °F 71% 30.47 in 10.0 mi Calm Calm - N/A   Clear
10:15 PM 17.4 °F 12.1 °F 9.5 °F 71% 30.47 in 10.0 mi NE 3.5 mph - N/A   Clear
10:35 PM 17.1 °F 8.7 °F 9.1 °F 71% 30.46 in 10.0 mi ENE 5.8 mph - N/A   Clear
10:55 PM 16.9 °F 11.5 °F 8.8 °F 71% 30.48 in 10.0 mi NE 3.5 mph - N/A   Clear
11:15 PM 16.2 °F 9.0 °F 8.6 °F 72% 30.46 in 10.0 mi NE 4.6 mph - N/A   Clear
11:35 PM 16.2 °F 7.6 °F 8.6 °F 72% 30.46 in 10.0 mi ENE 5.8 mph - N/A   Clear
11:55 PM 15.8 °F 10.2 °F 8.4 °F 73% 30.46 in 10.0 mi NE 3.5 mph - N/A   Clear